�������l�o���
Date,Time,MP-1(��Sv/h),MP-2(��Sv/h),MP-3(��Sv/h),MP-4(��Sv/h),MP-5(��Sv/h),MP-6(��Sv/h),MP-7(��Sv/h),����,����(m/s),���J
2015/03/21,00:00,0.536,0.329,0.554,0.511,0.550,0.250,0.221,�k��,3.7,��
2015/03/21,00:10,0.535,0.329,0.556,0.513,0.552,0.251,0.222,�k�k��,3.8,��
2015/03/21,00:20,0.536,0.330,0.556,0.515,0.550,0.250,0.222,�k��,2.5,��
2015/03/21,00:30,0.536,0.330,0.557,0.512,0.549,0.250,0.221,�k,4.5,��
2015/03/21,00:40,0.534,0.329,0.553,0.513,0.549,0.250,0.221,�k�k��,4.7,��
2015/03/21,00:50,0.535,0.330,0.556,0.513,0.552,0.251,0.220,�k,2.6,��
2015/03/21,01:00,0.536,0.329,0.556,0.512,0.550,0.251,0.222,�k,3.2,��
2015/03/21,01:10,0.536,0.330,0.555,0.513,0.550,0.251,0.220,�k,3.3,��
2015/03/21,01:20,0.534,0.330,0.555,0.514,0.549,0.250,0.221,�k,2.8,��
2015/03/21,01:30,0.537,0.328,0.554,0.513,0.550,0.251,0.222,�k,3.2,��
2015/03/21,01:40,0.535,0.330,0.555,0.514,0.550,0.251,0.221,�k�k��,2.8,��
2015/03/21,01:50,0.535,0.330,0.554,0.513,0.550,0.250,0.222,�k,3.5,��
2015/03/21,02:00,0.535,0.330,0.554,0.513,0.550,0.250,0.221,�k,3.9,��
2015/03/21,02:10,0.536,0.331,0.553,0.512,0.549,0.251,0.221,�k,2.8,��
2015/03/21,02:20,0.534,0.329,0.556,0.512,0.551,0.250,0.221,�k,1.4,��
2015/03/21,02:30,0.535,0.332,0.553,0.511,0.550,0.250,0.221,�k�k��,2.3,��
2015/03/21,02:40,0.536,0.328,0.554,0.513,0.550,0.251,0.222,�k�k��,1.7,��
2015/03/21,02:50,0.533,0.329,0.554,0.513,0.548,0.250,0.220,�k��,1.6,��
2015/03/21,03:00,0.535,0.329,0.554,0.513,0.547,0.250,0.220,�k��,1.2,��
2015/03/21,03:10,0.535,0.329,0.554,0.511,0.549,0.250,0.221,�k��,1.3,��
2015/03/21,03:20,0.536,0.328,0.555,0.514,0.550,0.250,0.220,-,CALM,��
2015/03/21,03:30,0.536,0.329,0.555,0.515,0.548,0.250,0.219,��쓌,0.5,��
2015/03/21,03:40,0.534,0.328,0.555,0.514,0.552,0.250,0.221,-,CALM,��
2015/03/21,03:50,0.534,0.329,0.554,0.512,0.548,0.251,0.220,-,CALM,��
2015/03/21,04:00,0.535,0.330,0.555,0.514,0.550,0.249,0.221,�쐼,1.1,��
2015/03/21,04:10,0.536,0.328,0.553,0.515,0.548,0.250,0.222,���쐼,1.0,��
2015/03/21,04:20,0.535,0.329,0.555,0.513,0.550,0.250,0.220,���쐼,1.1,��
2015/03/21,04:30,0.535,0.330,0.554,0.514,0.550,0.250,0.221,���k��,1.5,��
2015/03/21,04:40,0.535,0.329,0.555,0.514,0.547,0.249,0.221,�k��,3.5,��
2015/03/21,04:50,0.535,0.330,0.555,0.513,0.549,0.249,0.220,�k��,3.9,��
2015/03/21,05:00,0.536,0.329,0.552,0.514,0.550,0.250,0.221,�k��,4.8,��
2015/03/21,05:10,0.533,0.329,0.554,0.513,0.550,0.250,0.221,�k��,5.8,��
2015/03/21,05:20,0.534,0.330,0.555,0.513,0.550,0.251,0.221,�k�k��,4.8,��
2015/03/21,05:30,0.534,0.329,0.556,0.514,0.548,0.250,0.220,�k�k��,5.7,��
2015/03/21,05:40,0.536,0.330,0.554,0.514,0.549,0.250,0.221,�k�k��,5.3,��
2015/03/21,05:50,0.536,0.330,0.551,0.514,0.550,0.250,0.220,�k�k��,4.8,��
2015/03/21,06:00,0.533,0.328,0.553,0.510,0.549,0.250,0.221,�k�k��,4.5,��
2015/03/21,06:10,0.533,0.329,0.556,0.510,0.549,0.249,0.221,�k�k��,4.7,��
2015/03/21,06:20,0.536,0.330,0.553,0.512,0.549,0.250,0.222,�k,4.4,��
2015/03/21,06:30,0.533,0.330,0.554,0.510,0.549,0.250,0.221,�k,4.4,��
2015/03/21,06:40,0.534,0.328,0.555,0.512,0.549,0.249,0.220,�k,5.3,��
2015/03/21,06:50,0.534,0.329,0.555,0.513,0.547,0.250,0.220,�k�k��,6.2,��
2015/03/21,07:00,0.534,0.330,0.554,0.514,0.549,0.250,0.221,�k�k��,6.1,��
2015/03/21,07:10,0.533,0.330,0.553,0.511,0.550,0.250,0.221,�k�k��,6.6,��
2015/03/21,07:20,0.535,0.331,0.554,0.511,0.549,0.250,0.219,�k�k��,6.5,��
2015/03/21,07:30,0.534,0.329,0.556,0.513,0.548,0.248,0.220,�k�k��,6.8,��
2015/03/21,07:40,0.536,0.331,0.557,0.513,0.553,0.250,0.220,�k,6.1,��
2015/03/21,07:50,0.534,0.329,0.554,0.511,0.547,0.250,0.220,�k,5.1,��
2015/03/21,08:00,0.536,0.328,0.557,0.512,0.550,0.250,0.220,�k,4.5,��
2015/03/21,08:10,0.535,0.329,0.555,0.508,0.552,0.249,0.220,�k,4.7,��
2015/03/21,08:20,0.535,0.327,0.552,0.512,0.552,0.251,0.220,�k,4.9,��
2015/03/21,08:30,0.538,0.329,0.556,0.509,0.547,0.250,0.220,�k,4.5,��
2015/03/21,08:40,0.536,0.329,0.554,0.512,0.551,0.250,0.221,�k,5.5,��
2015/03/21,08:50,0.535,0.329,0.555,0.512,0.550,0.249,0.221,�k,5.7,��
2015/03/21,09:00,0.537,0.329,0.558,0.514,0.550,0.251,0.221,�k�k��,4.2,��
2015/03/21,09:10,0.536,0.328,0.556,0.511,0.552,0.250,0.220,�k,5.7,��
2015/03/21,09:20,0.537,0.331,0.554,0.514,0.549,0.251,0.221,�k,4.6,��
2015/03/21,09:30,0.538,0.328,0.558,0.511,0.555,0.250,0.220,�k�k��,4.2,��
2015/03/21,09:40,0.533,0.329,0.555,0.514,0.549,0.252,0.222,�k�k��,4.0,��
2015/03/21,09:50,0.535,0.329,0.554,0.511,0.556,0.250,0.221,�k�k��,3.4,��
2015/03/21,10:00,0.532,0.329,0.556,0.516,0.550,0.251,0.221,�k��,3.8,��
2015/03/21,10:10,0.536,0.330,0.554,0.511,0.555,0.250,0.221,�k�k��,3.6,��
2015/03/21,10:20,0.532,0.328,0.557,0.516,0.551,0.251,0.222,�k,2.6,��
2015/03/21,10:30,0.537,0.331,0.557,0.513,0.554,0.250,0.222,�k,2.9,��
2015/03/21,10:40,0.533,0.329,0.553,0.516,0.549,0.250,0.221,�k��,4.6,��
2015/03/21,10:50,0.538,0.332,0.557,0.513,0.555,0.251,0.222,�k�k��,2.9,��
2015/03/21,11:00,0.533,0.328,0.554,0.514,0.550,0.250,0.222,���k��,2.6,��
2015/03/21,11:10,0.538,0.332,0.557,0.515,0.556,0.251,0.222,�k��,2.7,��
2015/03/21,11:20,0.534,0.328,0.552,0.511,0.549,0.250,0.221,�k��,3.6,��
2015/03/21,11:30,0.538,0.331,0.556,0.518,0.556,0.251,0.223,�k��,3.4,��
2015/03/21,11:40,0.535,0.329,0.550,0.512,0.551,0.249,0.222,�k��,4.5,��
2015/03/21,11:50,0.539,0.330,0.555,0.517,0.555,0.251,0.223,�k��,4.8,��
2015/03/21,12:00,0.535,0.328,0.554,0.512,0.553,0.250,0.222,�k��,4.0,��
2015/03/21,12:10,0.539,0.332,0.554,0.516,0.556,0.252,0.223,�k��,3.5,��
2015/03/21,12:20,0.537,0.329,0.554,0.517,0.551,0.249,0.223,�k��,3.2,��
2015/03/21,12:30,0.542,0.331,0.554,0.512,0.557,0.253,0.222,���k��,3.3,��
2015/03/21,12:40,0.538,0.330,0.557,0.518,0.550,0.250,0.223,���k��,2.1,��
2015/03/21,12:50,0.541,0.332,0.553,0.513,0.558,0.251,0.222,��,2.5,��
2015/03/21,13:00,0.536,0.330,0.561,0.517,0.552,0.251,0.223,��,2.1,��
2015/03/21,13:10,0.540,0.331,0.555,0.514,0.555,0.251,0.222,��,2.9,��
2015/03/21,13:20,0.537,0.329,0.558,0.519,0.553,0.251,0.224,��,2.4,��
2015/03/21,13:30,0.541,0.331,0.557,0.515,0.556,0.253,0.223,��,1.6,��
2015/03/21,13:40,0.536,0.329,0.554,0.517,0.553,0.251,0.224,��,1.5,��
2015/03/21,13:50,0.539,0.331,0.560,0.516,0.556,0.251,0.222,���쓌,1.2,��
2015/03/21,14:00,0.538,0.330,0.551,0.518,0.555,0.251,0.224,�쓌,1.6,��
2015/03/21,14:10,0.539,0.332,0.558,0.517,0.553,0.251,0.223,�쓌,1.6,��
2015/03/21,14:20,0.539,0.329,0.556,0.516,0.556,0.252,0.223,���쓌,2.1,��
2015/03/21,14:30,0.539,0.331,0.558,0.516,0.553,0.251,0.222,��,1.2,��
2015/03/21,14:40,0.538,0.331,0.559,0.520,0.554,0.252,0.223,��쓌,1.1,��
2015/03/21,14:50,0.540,0.330,0.558,0.517,0.553,0.250,0.222,��쐼,1.4,��
2015/03/21,15:00,0.538,0.333,0.558,0.519,0.557,0.252,0.223,��쐼,1.4,��
2015/03/21,15:10,0.537,0.330,0.559,0.517,0.554,0.251,0.224,��,1.2,��
2015/03/21,15:20,0.541,0.331,0.560,0.520,0.558,0.253,0.224,��,1.8,��
2015/03/21,15:30,0.538,0.332,0.561,0.518,0.556,0.251,0.223,��,2.0,��
2015/03/21,15:40,0.541,0.333,0.560,0.518,0.555,0.253,0.223,��쓌,2.6,��
2015/03/21,15:50,0.537,0.332,0.560,0.522,0.558,0.251,0.223,��,2.5,��
2015/03/21,16:00,0.542,0.331,0.562,0.518,0.554,0.251,0.223,��,2.6,��
2015/03/21,16:10,0.538,0.333,0.558,0.519,0.561,0.251,0.223,��,3.0,��
2015/03/21,16:20,0.541,0.332,0.560,0.520,0.553,0.253,0.222,��,3.1,��
2015/03/21,16:30,0.539,0.332,0.560,0.518,0.559,0.251,0.224,��,3.2,��
2015/03/21,16:40,0.538,0.332,0.558,0.517,0.555,0.253,0.224,��,3.2,��
2015/03/21,16:50,0.543,0.334,0.561,0.521,0.556,0.252,0.225,��,3.2,��
2015/03/21,17:00,0.540,0.331,0.559,0.518,0.556,0.252,0.225,��,3.7,��
2015/03/21,17:10,0.539,0.331,0.558,0.518,0.556,0.252,0.225,��,3.9,��
2015/03/21,17:20,0.540,0.333,0.560,0.521,0.558,0.253,0.224,��쐼,4.5,��
2015/03/21,17:30,0.539,0.330,0.559,0.520,0.555,0.252,0.224,��,4.4,��
2015/03/21,17:40,0.540,0.333,0.562,0.519,0.556,0.252,0.224,��쐼,4.6,��
2015/03/21,17:50,0.541,0.332,0.560,0.519,0.557,0.253,0.224,��,5.0,��
2015/03/21,18:00,0.538,0.331,0.557,0.520,0.556,0.251,0.224,��,5.1,��
2015/03/21,18:10,0.540,0.331,0.561,0.517,0.555,0.252,0.224,��,3.9,��
2015/03/21,18:20,0.543,0.331,0.562,0.521,0.555,0.253,0.225,��,4.0,��
2015/03/21,18:30,0.540,0.331,0.559,0.520,0.554,0.252,0.225,��,4.1,��
2015/03/21,18:40,0.540,0.330,0.561,0.519,0.554,0.251,0.223,��쓌,1.6,��
2015/03/21,18:50,0.541,0.331,0.559,0.518,0.555,0.252,0.223,��쐼,4.1,��
2015/03/21,19:00,0.540,0.333,0.558,0.520,0.554,0.251,0.224,��쐼,3.8,��
2015/03/21,19:10,0.538,0.333,0.559,0.519,0.555,0.252,0.225,��쐼,3.3,��
2015/03/21,19:20,0.541,0.331,0.560,0.518,0.552,0.252,0.224,��쐼,4.0,��
2015/03/21,19:30,0.540,0.331,0.559,0.519,0.557,0.253,0.225,��,4.0,��
2015/03/21,19:40,0.539,0.333,0.559,0.519,0.556,0.252,0.224,��,3.9,��
2015/03/21,19:50,0.542,0.332,0.559,0.518,0.553,0.254,0.225,��쐼,4.2,��
2015/03/21,20:00,0.540,0.331,0.564,0.517,0.552,0.251,0.224,��쐼,4.1,��
2015/03/21,20:10,0.539,0.332,0.559,0.520,0.553,0.252,0.224,��쐼,3.4,��
2015/03/21,20:20,0.540,0.332,0.560,0.519,0.556,0.252,0.224,��,3.8,��
2015/03/21,20:30,0.541,0.332,0.562,0.517,0.551,0.252,0.226,��,4.3,��
2015/03/21,20:40,0.542,0.332,0.562,0.519,0.555,0.253,0.223,��쐼,4.8,��
2015/03/21,20:50,0.538,0.333,0.559,0.519,0.553,0.252,0.224,��쐼,5.8,��
2015/03/21,21:00,0.541,0.332,0.557,0.522,0.554,0.252,0.224,��쐼,5.8,��
2015/03/21,21:10,0.540,0.332,0.561,0.520,0.551,0.253,0.224,��쐼,5.5,��
2015/03/21,21:20,0.539,0.332,0.560,0.519,0.554,0.253,0.224,��쐼,5.9,��
2015/03/21,21:30,0.539,0.332,0.561,0.519,0.556,0.251,0.224,��쐼,6.2,��
2015/03/21,21:40,0.541,0.331,0.560,0.519,0.553,0.253,0.224,��,6.3,��
2015/03/21,21:50,0.539,0.333,0.560,0.519,0.553,0.254,0.225,��쐼,6.7,��
2015/03/21,22:00,0.539,0.332,0.562,0.518,0.552,0.253,0.224,��쐼,6.6,��
2015/03/21,22:10,0.539,0.332,0.561,0.519,0.556,0.253,0.224,�쐼,7.1,��
2015/03/21,22:20,0.541,0.331,0.560,0.518,0.554,0.253,0.225,�쐼,7.7,��
2015/03/21,22:30,0.538,0.332,0.561,0.519,0.554,0.252,0.224,��쐼,7.1,��
2015/03/21,22:40,0.540,0.334,0.562,0.518,0.553,0.252,0.224,��쐼,7.1,��
2015/03/21,22:50,0.541,0.332,0.559,0.520,0.554,0.253,0.225,��쐼,7.1,��
2015/03/21,23:00,0.538,0.330,0.558,0.519,0.554,0.253,0.224,��쐼,6.4,��
2015/03/21,23:10,0.539,0.332,0.562,0.519,0.551,0.252,0.225,��쐼,6.6,��
2015/03/21,23:20,0.540,0.333,0.559,0.518,0.557,0.251,0.225,��쐼,5.7,��
2015/03/21,23:30,0.541,0.333,0.560,0.518,0.555,0.254,0.226,��쐼,6.5,��
2015/03/21,23:40,0.541,0.331,0.560,0.521,0.554,0.252,0.224,��쐼,5.6,��
2015/03/21,23:50,0.540,0.332,0.561,0.520,0.554,0.253,0.224,��쐼,5.1,��
